Weather home | Your neighborhood | Marine | Radar | Hurricane | Almanac

Daily weather history


Statistical History for Friday, April 21, 2017

Tampa Knight Airport, FL


  Actual Average (KTPA) Record (KTPA)
Temperature
Mean Temperature -  
Max Temperature 80 °F 91 °F (1925)
Min Temperature 62 °F 48 °F (1953)
Cooling Degree Days    
Growing Degree Days 28 (Base - )  
Moisture
Dew Point   
Average Humidity    
Maximum Humidity    
Minimum Humidity    
Precipitation
Precipitation - - ()
Wind
Wind Speed   
Max Wind Speed   
Max Gust Speed   
Visibility   
Events   
Averages and records for this station are not official NWS values.
Key: T is trace of precipitation, MM is missing value
Source: NWS Daily Summary
Seasonal Weather Averages
Time(EDT)TemperatureDew PointHumidity Sea Level Pressure Visibility Wind DirectionWind SpeedGust SpeedPrecipitationEventsConditions
12:15 AM 73.4 °F 60.8 °F 65% 30.10 in 10.0 miles East 12.7 mph - N/A   Overcast
12:35 AM 73.4 °F 60.8 °F 65% 30.10 in 10.0 miles East 9.2 mph - N/A   Overcast
12:55 AM 71.6 °F 60.8 °F 69% 30.10 in 10.0 miles East 8.1 mph - N/A   Overcast
1:15 AM 71.6 °F 60.8 °F 69% 30.09 in 10.0 miles ESE 8.1 mph - N/A   Overcast
1:35 AM 71.6 °F 60.8 °F 69% 30.09 in 10.0 miles East 8.1 mph - N/A   Overcast
1:55 AM 71.6 °F 60.8 °F 69% 30.08 in 10.0 miles East 5.8 mph - N/A   Overcast
2:15 AM 69.8 °F 60.8 °F 73% 30.08 in 10.0 miles East 8.1 mph - N/A   Overcast
2:35 AM 69.8 °F 62.6 °F 78% 30.07 in 10.0 miles East 4.6 mph - N/A   Overcast
2:55 AM 69.8 °F 62.6 °F 78% 30.07 in 10.0 miles East 4.6 mph - N/A   Overcast
3:15 AM 68.0 °F 62.6 °F 83% 30.06 in 10.0 miles East 6.9 mph - N/A   Mostly Cloudy
3:35 AM 68.0 °F 62.6 °F 83% 30.06 in 10.0 miles East 6.9 mph - N/A   Mostly Cloudy
3:55 AM 68.0 °F 62.6 °F 83% 30.06 in 10.0 miles East 6.9 mph - N/A   Mostly Cloudy
4:15 AM 68.0 °F 62.6 °F 83% 30.06 in 10.0 miles ENE 6.9 mph - N/A   Mostly Cloudy
4:35 AM 68.0 °F 62.6 °F 83% 30.06 in 10.0 miles East 6.9 mph - N/A   Mostly Cloudy
4:55 AM 68.0 °F 62.6 °F 83% 30.05 in 10.0 miles ENE 5.8 mph - N/A   Mostly Cloudy
5:15 AM 66.2 °F 62.6 °F 88% 30.05 in 10.0 miles East 5.8 mph - N/A   Mostly Cloudy
5:35 AM 66.2 °F 62.6 °F 88% 30.05 in 10.0 miles East 4.6 mph - N/A   Mostly Cloudy
5:55 AM 66.2 °F 62.6 °F 88% 30.06 in 10.0 miles East 4.6 mph - N/A   Mostly Cloudy
6:15 AM 66.2 °F 62.6 °F 88% 30.06 in 10.0 miles East 5.8 mph - N/A   Overcast
6:35 AM 66.2 °F 62.6 °F 88% 30.06 in 10.0 miles East 5.8 mph - N/A   Mostly Cloudy
6:55 AM 66.2 °F 62.6 °F 88% 30.07 in 10.0 miles East 5.8 mph - N/A   Scattered Clouds
7:15 AM 66.2 °F 62.6 °F 88% 30.08 in 10.0 miles East 4.6 mph - N/A   Scattered Clouds
7:35 AM 68.0 °F 62.6 °F 83% 30.08 in 10.0 miles East 5.8 mph - N/A   Scattered Clouds
7:55 AM 68.0 °F 62.6 °F 83% 30.08 in 10.0 miles East 5.8 mph - N/A   Clear
8:15 AM 69.8 °F 62.6 °F 78% 30.08 in 10.0 miles East 8.1 mph - N/A   Clear
8:35 AM 71.6 °F 64.4 °F 78% 30.08 in 10.0 miles ESE 6.9 mph - N/A   Clear
8:55 AM 73.4 °F 62.6 °F 69% 30.08 in 10.0 miles ESE 8.1 mph - N/A   Clear
9:15 AM 75.2 °F 62.6 °F 65% 30.08 in 10.0 miles ESE 8.1 mph - N/A   Scattered Clouds
9:35 AM 77.0 °F 62.6 °F 61% 30.08 in 10.0 miles SE 9.2 mph - N/A   Mostly Cloudy
9:55 AM 78.8 °F 60.8 °F 54% 30.08 in 10.0 miles SE 9.2 mph - N/A   Overcast
10:15 AM 80.6 °F 60.8 °F 51% 30.08 in 10.0 miles SE 8.1 mph - N/A   Overcast
10:35 AM 80.6 °F 60.8 °F 51% 30.07 in 10.0 miles SE 10.4 mph - N/A   Overcast
10:55 AM 80.6 °F 60.8 °F 51% 30.07 in 10.0 miles SE 10.4 mph - N/A   Overcast
11:15 AM 82.4 °F 59.0 °F 45% 30.06 in 10.0 miles SE 11.5 mph - N/A   Mostly Cloudy
11:35 AM 82.4 °F 59.0 °F 45% 30.06 in 10.0 miles SE 5.8 mph - N/A   Overcast
11:55 AM 82.4 °F 59.0 °F 45% 30.05 in 10.0 miles SSE 10.4 mph - N/A   Overcast
12:15 PM 84.2 °F 59.0 °F 42% 30.04 in 10.0 miles SSE 9.2 mph - N/A   Overcast
12:35 PM 84.2 °F 59.0 °F 42% 30.04 in 10.0 miles South 6.9 mph - N/A   Mostly Cloudy
12:55 PM 86.0 °F 60.8 °F 43% 30.02 in 10.0 miles SSE 4.6 mph - N/A   Mostly Cloudy
1:15 PM 87.8 °F 60.8 °F 40% 30.01 in 10.0 miles SSE 8.1 mph - N/A   Scattered Clouds
1:35 PM 87.8 °F 59.0 °F 38% 30.01 in 10.0 miles SSE 9.2 mph - N/A   Clear
1:55 PM 87.8 °F 59.0 °F 38% 30.00 in 10.0 miles SSE 6.9 mph - N/A   Clear
2:15 PM 89.6 °F 55.4 °F 31% 29.99 in 10.0 miles ESE 8.1 mph 16.1 mph N/A   Clear
2:35 PM 89.6 °F 55.4 °F 31% 29.98 in 10.0 miles SSE 13.8 mph 18.4 mph N/A   Clear
2:55 PM 89.6 °F 55.4 °F 31% 29.97 in 10.0 miles East 3.5 mph - N/A   Scattered Clouds
3:15 PM 89.6 °F 55.4 °F 31% 29.96 in 10.0 miles SSE 8.1 mph - N/A   Scattered Clouds
3:35 PM 89.6 °F 55.4 °F 31% 29.95 in 10.0 miles SE 8.1 mph - N/A   Scattered Clouds
3:55 PM 89.6 °F 55.4 °F 31% 29.94 in 10.0 miles SSE 8.1 mph - N/A   Scattered Clouds
4:15 PM 91.4 °F 53.6 °F 28% 29.93 in 10.0 miles SE 11.5 mph 17.3 mph N/A   Scattered Clouds
4:35 PM 91.4 °F 53.6 °F 28% 29.93 in 10.0 miles SE 8.1 mph - N/A   Scattered Clouds
4:55 PM 91.4 °F 53.6 °F 28% 29.93 in 10.0 miles SSE 9.2 mph - N/A   Scattered Clouds
5:15 PM 91.4 °F 51.8 °F 26% 29.93 in 10.0 miles SSE 9.2 mph - N/A   Clear
5:35 PM 89.6 °F 53.6 °F 29% 29.92 in 10.0 miles SSE 12.7 mph - N/A   Scattered Clouds
5:55 PM 89.6 °F 53.6 °F 29% 29.92 in 10.0 miles SE 8.1 mph - N/A   Scattered Clouds
6:15 PM 89.6 °F 55.4 °F 31% 29.92 in 10.0 miles SE 6.9 mph - N/A   Scattered Clouds
6:55 PM 82.4 °F 66.2 °F 58% 29.93 in 10.0 miles WNW 9.2 mph - N/A   Mostly Cloudy
7:15 PM 80.6 °F 66.2 °F 61% 29.93 in 10.0 miles West 6.9 mph - N/A   Scattered Clouds
7:35 PM 78.8 °F 66.2 °F 65% 29.94 in 10.0 miles WNW 8.1 mph - N/A   Mostly Cloudy
7:55 PM 78.8 °F 66.2 °F 65% 29.94 in 10.0 miles WNW 8.1 mph - N/A   Mostly Cloudy
8:15 PM 78.8 °F 66.2 °F 65% 29.95 in 10.0 miles WNW 6.9 mph - N/A   Mostly Cloudy
8:35 PM 78.8 °F 66.2 °F 65% 29.96 in 10.0 miles WNW 4.6 mph - N/A   Scattered Clouds
8:55 PM 77.0 °F 64.4 °F 65% 29.96 in 10.0 miles WNW 4.6 mph - N/A   Mostly Cloudy
9:15 PM 77.0 °F 64.4 °F 65% 29.97 in 10.0 miles NNW 5.8 mph - N/A   Overcast
9:35 PM 77.0 °F 64.4 °F 65% 29.98 in 10.0 miles North 3.5 mph - N/A   Overcast
9:55 PM 77.0 °F 64.4 °F 65% 29.98 in 10.0 miles NW 4.6 mph - N/A   Overcast
10:15 PM 77.0 °F 66.2 °F 69% 29.99 in 10.0 miles Calm Calm - N/A   Overcast
10:35 PM 75.2 °F 66.2 °F 73% 29.99 in 10.0 miles Calm Calm - N/A   Mostly Cloudy
10:55 PM 75.2 °F 66.2 °F 73% 30.00 in 10.0 miles Calm Calm - N/A   Overcast
11:15 PM 75.2 °F 66.2 °F 73% 30.00 in 10.0 miles Calm Calm - N/A   Overcast
11:35 PM 75.2 °F 66.2 °F 73% 30.00 in 10.0 miles Calm Calm - N/A   Overcast
11:55 PM 73.4 °F 68.0 °F 83% 30.00 in 10.0 miles Calm Calm - N/A   Mostly Cloudy
ADVERTISEMENT
Enter city or zip code to search weather conditions:


  • 490 First Avenue South
  • St. Petersburg, FL 33701
  • 727-893-8111